Hourly Data Report for June 07, 2021

TORONTO CITY
ONTARIO
Current Station Operator: ECCC - MSC

43°40'00.000" N
79°24'00.000" W
112.50 m
6158355
71508
XTO

Download Data

Hourly Data (June 2021)
Hourly Data Report for June 7, 2021
TIME
LST
Temp Definition
°C
Dew Point Definition
°C
Rel Hum Definition
%
Precip. Amount Definition
mm

Wind Dir Definition
10's deg

Wind Spd Definition
km/h
Visibility Definition
km
Stn Press Definition
kPa
Hmdx Definition


Wind Chill Definition


Weather Definition


00:00 20.6 13.4 64 0.0       100.18     LegendNANA
01:00 19.5 13.7 69 0.0       100.16     LegendNANA
02:00 19.4 14.7 75 0.0       100.15     LegendNANA
03:00 19.5 15.1 76 0.0       100.16     LegendNANA
04:00 19.9 14.6 72 0.0       100.17     LegendNANA
05:00 20.7 15.2 70 0.0       100.18 25   LegendNANA
06:00 22.1 15.3 66 0.0       100.24 26   LegendNANA
07:00 22.9 16.0 65 0.0       100.25 28   LegendNANA
08:00 21.9 16.3 71 0.0       100.26 27   LegendNANA
09:00 24.9 17.3 63 0.0       100.26 30   LegendNANA
10:00 26.6 18.5 61 0.0       100.25 33   LegendNANA
11:00 27.6 19.7 62 0.0       100.24 35   LegendNANA
12:00 29.1 19.5 56 0.0       100.21 36   LegendNANA
13:00 28.7 18.4 54 0.0       100.18 35   LegendNANA
14:00 27.2 18.5 59 0.0       100.15 34   LegendNANA
15:00 27.4 19.3 61 0.0       100.11 34   LegendNANA
16:00 27.5 17.3 54 0.0       100.08 33   LegendNANA
17:00 27.3 16.9 53 0.0       100.06 33   LegendNANA
18:00 28.0 17.2 52 0.0       100.08 33   LegendNANA
19:00 27.6 18.2 57 0.0       100.11 34   LegendNANA
20:00 26.5 18.1 60 0.0       100.12 33   LegendNANA
21:00 26.2 17.6 59 0.0       100.18 32   LegendNANA
22:00 24.9 17.6 64 0.0       100.22 31   LegendNANA
23:00 24.3 18.0 68 0.0       100.24 30   LegendNANA

Notes on Data Quality.

Legend

  • E = Estimated
  • M = Missing
  • NA = Not Available*
  • [empty] = Indicates an unobserved value
Date modified: